Temperature
23 25 26 26 27 26 25 22 22 23 23 23 22 22 22 22 22 21 21 21 21 21 21 21 20 20 19 19 18 18 18 18 17 17 17 17 17 16 16 16 16 16 15 15
24 25 26 26 26 26 26 25 24 24 23 22 23 23 22 21 21 20 21 21 21 21 20 20 20 20 19 19 18 18 17 17 17 17 17 16 16 16 16 15 15 15 15 15
21 24 25 24 25 26 25 25 25 24 23 22 21 21 21 21 21 21 21 21 21 21 20 20 20 19 19 18 18 17 17 17 17 16 16 16 16 15 15 15 15 15 14 14
20 23 23 22 23 25 25 24 24 23 22 22 22 22 22 22 22 21 21 21 21 20 20 20 20 19 19 18 18 17 17 17 16 16 16 16 15 15 15 15 14 14 14 14
18 20 22 23 25 25 24 23 23 23 23 22 22 22 21 22 23 22 22 21 21 21 20 20 19 19 18 18 17 17 17 16 16 16 16 15 15 15 14 14 14 14 13 13
18 21 21 22 24 25 23 22 22 22 22 22 22 20 20 21 22 21 21 21 21 20 20 19 19 19 18 18 17 17 16 16 16 15 15 15 15 14 14 13 13 13 13 13
18 20 20 21 23 24 22 21 22 23 23 22 21 21 22 22 22 21 21 21 20 20 19 19 19 18 18 17 17 17 16 16 15 15 15 15 14 14 13 13 13 13 12 12
17 19 19 20 21 21 20 21 22 23 23 23 23 22 22 21 21 21 20 20 20 19 19 19 18 18 18 17 17 16 16 16 15 15 14 14 14 13 13 13 12 12 12 12
17 17 18 20 20 21 21 21 22 22 23 23 22 21 21 21 21 20 20 19 19 19 18 18 18 17 17 17 16 16 15 15 15 14 14 14 13 13 13 12 12 12 11 11
16 17 18 19 20 21 21 21 22 22 22 23 22 21 21 20 20 20 19 19 18 18 18 17 17 17 17 16 16 15 15 15 14 14 13 13 13 13 12 12 12 11 11 11
15 16 18 19 19 20 20 21 21 21 21 21 21 20 20 19 19 19 19 18 18 18 18 17 16 16 16 16 15 15 15 14 14 13 13 13 12 12 12 12 11 11 11 11
15 16 16 17 18 19 20 20 20 20 20 20 21 20 19 19 19 18 18 18 17 17 17 16 16 16 15 15 15 15 14 14 13 13 13 12 12 12 11 11 11 10 10 10
17 17 18 18 18 19 19 19 20 20 20 19 19 20 19 19 18 18 17 17 17 17 16 16 15 15 15 15 14 14 14 14 13 13 12 12 12 12 11 11 10 10 10 10
17 17 17 18 18 18 18 18 19 19 19 19 19 19 19 18 17 17 17 16 16 16 16 15 15 15 14 14 14 13 13 13 13 12 12 12 11 11 11 11 10 10 10 10
17 17 17 17 17 18 18 18 18 18 18 18 18 18 18 17 17 16 16 16 16 15 15 14 14 14 14 14 13 13 13 12 12 12 12 11 11 11 11 10 10 10 10 9
16 17 17 17 17 17 18 18 17 17 17 17 17 17 17 17 16 16 16 15 15 15 15 14 14 14 13 13 13 12 12 12 12 12 11 11 11 11 10 10 10 10 9 9
16 16 16 16 16 16 17 17 17 17 17 17 17 16 16 16 15 15 15 15 15 14 14 14 14 13 13 13 12 12 12 12 12 11 11 11 11 10 10 10 10 10 10 9
16 15 15 16 16 16 16 16 16 16 16 16 16 16 16 15 15 15 14 14 14 14 13 13 13 12 12 12 12 12 12 11 11 11 11 11 11 10 10 10 10 10 9 9
15 15 15 15 15 16 16 16 16 16 16 16 15 15 15 15 15 14 14 13 13 13 13 13 12 12 12 12 11 11 11 11 11 11 11 11 10 10 10 10 10 10 9 9
14 15 15 15 15 15 15 15 16 16 15 15 15 15 15 14 14 14 13 13 13 13 13 12 12 12 11 11 11 11 11 11 11 11 11 10 10 10 10 10 10 10 9 9
14 14 14 14 14 15 15 15 15 15 15 15 15 14 14 14 13 13 13 13 12 12 12 12 11 11 11 11 11 11 11 11 11 11 10 10 10 10 10 10 10 10 9 9
13 13 13 13 14 14 14 14 14 14 14 14 14 14 13 13 13 12 12 12 12 12 11 11 11 11 11 11 11 11 11 11 11 10 10 10 10 10 10 10 10 9 9 9
13 13 13 13 13 13 13 13 13 13 13 13 13 13 13 13 12 12 12 12 11 11 11 11 11 11 11 11 11 10 10 11 10 10 10 10 10 10 10 10 10 9 9 9
12 12 12 12 12 12 12 12 13 13 13 13 12 12 12 12 12 11 11 11 11 11 11 11 11 11 11 10 10 10 10 10 10 10 10 10 10 10 10 10 10 9 9 9
11 11 11 12 12 12 12 12 12 12 12 12 12 12 12 12 11 11 11 11 11 11 10 10 10 10 10 10 10 10 10 10 10 10 10 10 10 10 10 10 9 9 9 9
11 11 11 11 11 11 11 11 11 11 11 11 11 11 11 11 11 11 10 10 10 10 10 10 10 10 10 10 10 10 10 10 10 10 10 10 10 10 10 9 9 9 9 9
10 10 10 10 10 11 11 11 11 11 11 11 11 10 10 10 10 10 10 10 10 10 10 10 10 9 9 10 10 10 10 10 10 10 10 10 10 9 9 9 9 9 9 9
Wind_Speed
6 5 2 2 5 5 6 9 9 8 9 9 12 13 12 12 12 13 12 11 11 10 8 8 8 7 6 6 6 7 8 7 6 6 6 6 7 6 6 6 7 6 6 7
0 1 2 3 5 4 4 5 7 7 5 6 9 11 12 12 13 14 14 13 12 11 10 9 9 8 6 6 6 8 8 7 7 7 7 7 7 7 7 7 7 7 7 7
1 2 4 4 5 3 2 2 7 8 8 8 11 15 16 15 14 13 14 13 13 12 11 10 9 8 8 7 8 8 8 7 7 7 7 7 7 7 7 7 7 8 7 7
2 3 3 9 5 3 3 1 2 5 8 13 13 11 10 12 13 12 12 13 12 12 11 9 9 9 9 9 8 8 8 7 7 7 8 7 7 7 7 6 7 7 7 7
4 3 4 6 4 1 3 2 0 7 9 10 11 9 4 5 9 11 11 11 11 11 11 10 10 10 10 9 8 8 8 8 7 8 8 7 7 6 6 7 7 6 6 7
4 4 5 6 7 2 6 0 3 6 11 12 10 6 5 6 9 10 9 9 10 10 10 10 9 10 11 9 9 8 8 8 7 7 8 8 7 6 6 7 7 7 7 7
4 3 6 6 7 2 5 6 3 5 9 9 6 7 8 10 10 10 10 10 11 11 10 10 10 11 11 9 8 7 8 8 8 7 8 7 7 6 7 7 7 7 7 6
5 4 6 6 4 3 5 3 3 5 6 8 8 10 11 12 12 11 11 10 11 11 9 8 10 11 11 9 8 8 9 9 8 7 7 7 7 7 6 7 8 6 6 6
6 6 4 2 2 2 4 6 4 5 6 11 12 10 11 10 11 10 10 10 9 11 10 8 8 10 11 9 9 10 10 9 8 8 6 6 7 7 6 6 6 5 5 4
4 1 2 5 6 6 6 6 6 7 8 10 11 12 12 11 10 9 8 10 9 11 11 9 8 9 9 10 10 11 10 9 8 8 7 6 5 5 5 5 5 5 4 4
3 1 5 7 6 6 7 8 9 8 7 9 11 11 11 10 10 9 8 7 9 10 10 10 9 9 9 10 11 11 10 9 8 8 8 7 6 4 4 2 3 5 4 4
3 3 2 1 2 5 6 6 7 8 6 6 9 10 10 10 9 9 10 9 9 9 10 9 9 9 9 9 11 12 10 9 7 7 7 6 7 6 8 6 6 7 7 6
3 2 2 1 2 4 3 4 6 7 7 6 6 8 9 8 8 9 9 10 10 10 10 10 10 9 9 9 9 10 10 9 8 8 7 6 6 7 5 5 8 7 7 7
4 5 4 2 1 3 4 5 6 6 6 7 7 7 8 8 8 9 9 9 9 10 10 9 10 9 8 9 9 9 9 10 9 8 7 7 6 5 5 6 4 2 3 4
1 2 3 2 1 3 3 6 7 5 5 5 7 8 8 9 8 8 8 9 10 10 9 9 9 8 8 9 9 9 8 8 8 7 7 6 6 5 5 5 4 3 1 2
2 2 2 2 1 1 3 5 5 4 5 6 6 7 7 8 7 7 8 10 11 10 10 9 9 8 8 9 8 7 7 11 10 8 7 7 6 6 5 4 4 3 3 2
3 1 1 1 2 2 2 4 5 5 5 7 7 8 8 8 7 7 7 7 8 8 8 9 8 8 8 8 8 7 6 8 11 8 7 7 6 6 6 5 5 4 3 4
2 3 3 3 3 2 2 3 4 6 6 7 8 9 9 9 9 8 7 7 8 7 6 7 8 8 8 8 7 6 6 6 6 7 6 6 6 6 6 6 6 5 3 3
1 2 1 1 1 2 3 3 4 5 5 7 8 9 8 8 8 8 8 9 9 8 6 7 10 9 8 8 8 6 6 6 6 6 6 8 7 6 6 6 5 5 4 4
2 2 2 1 0 2 3 4 5 5 5 6 7 8 8 7 8 8 8 7 6 5 6 7 8 7 7 8 8 6 7 7 7 6 5 5 6 5 5 5 5 5 5 5
1 1 2 1 0 1 2 4 6 6 6 7 8 8 8 7 8 8 8 6 3 6 7 9 7 6 6 7 8 6 6 6 6 5 5 6 5 5 5 5 5 5 5 5
1 1 0 1 2 2 2 3 5 6 6 6 7 8 8 8 7 6 5 5 6 9 7 6 5 7 8 8 6 6 6 6 5 5 5 5 5 5 5 5 5 5 5 5
1 1 1 1 3 3 3 4 5 6 6 6 7 8 8 7 7 7 5 4 6 9 7 5 8 11 11 7 6 6 6 6 5 5 5 5 5 5 5 5 5 5 5 5
1 2 2 2 4 5 4 3 4 5 6 6 6 7 8 7 5 3 5 8 9 9 6 7 10 10 9 5 5 5 5 5 5 5 5 5 5 4 4 5 5 5 5 6
1 2 2 3 4 3 4 4 5 6 6 5 5 5 5 5 5 5 6 8 10 9 6 7 10 9 6 4 5 5 4 4 4 5 4 4 4 4 4 5 5 5 5 5
2 2 2 2 3 3 4 4 4 5 5 6 5 5 5 5 6 6 6 7 8 8 6 5 6 6 4 4 4 4 4 4 4 4 4 4 4 4 4 4 5 4 4 4
2 2 2 3 2 2 4 4 5 5 5 6 6 5 5 6 6 6 7 6 6 5 5 4 4 4 4 4 4 3 3 3 3 3 4 4 4 4 4 5 4 5 5 5
Wind_Direction
197 205 166 237 259 219 179 178 176 202 188 200 179 167 160 151 148 146 148 146 145 142 143 141 135 131 132 126 124 125 117 112 110 105 98 91 85 81 77 75 74 69 67 61
292 342 41 330 297 253 212 183 171 162 199 208 155 137 145 152 155 155 157 154 148 144 147 147 142 138 133 129 126 121 119 118 112 105 98 93 88 82 78 74 72 70 66 64
231 337 42 300 259 230 219 199 164 181 201 158 143 155 162 163 163 160 158 156 154 154 155 153 150 146 143 138 127 122 119 116 112 109 103 99 98 87 81 77 76 74 68 65
111 74 212 246 249 177 171 233 175 167 168 159 158 157 156 156 156 157 158 155 154 151 148 147 144 140 137 130 126 124 121 116 113 111 107 103 99 94 89 85 82 79 73 65
113 150 262 292 304 187 155 300 250 149 145 135 116 95 91 150 148 153 155 153 152 149 146 143 142 142 133 127 124 122 123 121 120 119 116 110 106 103 98 95 87 80 74 68
120 147 214 250 293 285 115 34 309 140 139 136 121 131 190 169 141 137 137 139 139 137 135 139 142 137 131 131 128 129 128 125 121 120 120 118 114 106 101 99 96 87 70 61
146 180 251 268 302 23 133 204 255 144 141 137 144 165 159 140 133 136 136 134 133 134 140 146 142 134 133 133 134 133 125 118 114 114 114 113 108 104 105 101 94 85 74 57
148 172 245 302 20 109 190 180 123 113 124 121 120 118 125 129 129 131 129 129 131 132 132 134 136 134 134 136 135 126 120 115 112 111 115 114 107 105 105 107 100 90 79 61
174 197 235 306 119 150 136 114 99 102 115 125 122 127 129 129 130 129 132 133 131 131 127 125 130 136 137 139 133 125 119 117 113 103 97 101 106 111 108 108 108 104 95 84
88 48 30 46 58 54 72 88 93 103 111 122 126 135 133 134 133 130 132 134 133 131 131 132 130 130 135 136 132 127 124 121 116 110 100 88 87 95 108 115 120 121 118 112
81 64 31 29 43 61 66 74 81 89 103 116 123 131 137 140 140 140 135 132 134 137 139 140 135 132 135 136 133 129 128 126 120 115 112 100 87 77 102 108 148 147 149 144
191 219 153 245 19 67 75 80 91 100 97 110 125 134 135 140 142 140 139 137 136 136 138 139 137 137 140 141 140 138 137 136 134 130 125 122 116 90 56 69 85 110 127 133
170 162 142 189 40 58 81 92 98 110 124 123 120 129 132 133 135 137 140 144 147 147 145 143 142 143 146 146 145 146 147 146 143 140 139 139 135 128 111 59 61 78 100 112
108 91 74 36 30 60 92 93 92 96 109 122 122 121 126 126 131 139 149 152 146 143 143 145 145 150 154 151 148 149 150 152 151 151 151 150 147 142 140 138 124 74 54 92
87 112 158 174 52 59 88 98 93 96 106 114 121 125 131 136 142 146 147 144 140 141 145 146 147 153 156 153 154 156 157 159 157 154 154 153 150 145 142 141 138 136 102 50
86 74 84 86 44 85 101 110 122 140 142 136 133 136 138 138 137 139 145 147 148 153 156 154 156 160 155 149 147 149 154 156 155 155 155 154 152 151 151 151 150 149 155 162
115 125 160 210 275 261 187 160 162 166 156 148 153 147 139 132 131 137 145 149 149 151 154 155 158 157 152 149 147 147 144 149 148 148 154 158 160 162 161 158 161 166 178 175
206 205 206 208 226 230 207 178 158 157 166 165 152 148 150 150 152 152 146 137 130 130 142 151 151 148 148 148 146 145 144 143 143 145 148 152 158 162 162 164 169 169 172 163
287 263 266 262 223 191 178 162 152 150 152 151 149 153 154 151 151 148 141 140 143 147 156 149 143 143 145 149 145 143 145 144 141 144 147 151 153 160 164 168 172 176 168 156
21 27 29 354 323 152 159 159 144 137 141 145 143 142 143 147 146 144 141 147 161 160 152 142 139 141 146 151 147 146 147 150 150 148 148 155 159 162 164 167 168 166 162 161
360 16 23 356 123 122 140 147 147 146 145 144 147 149 149 147 145 144 143 145 154 140 138 137 141 145 144 146 143 144 146 149 150 150 154 158 158 161 163 162 165 169 169 169
340 318 297 135 124 98 99 122 133 138 138 138 140 140 140 142 143 140 143 153 153 143 141 143 144 143 141 136 137 142 145 149 149 152 158 158 159 163 168 166 167 173 173 174
360 24 86 128 137 125 100 109 125 131 134 137 145 147 147 149 151 149 150 152 146 141 139 141 138 132 128 129 134 139 143 147 153 161 163 161 161 164 167 168 171 173 174 178
63 81 86 108 112 109 110 117 118 121 124 128 136 140 139 136 132 136 139 144 144 138 136 137 133 128 126 129 130 135 142 146 149 155 159 159 160 161 165 170 172 176 178 177
109 103 95 103 110 120 126 126 115 114 116 115 116 120 126 134 142 144 138 142 142 133 131 137 134 131 132 135 137 138 143 151 153 154 156 159 163 166 171 174 175 175 178 180
120 122 125 124 129 132 132 128 126 127 123 119 114 112 113 115 120 124 128 134 135 134 135 139 141 135 134 137 141 144 148 151 150 157 158 160 165 166 168 174 172 170 174 178
104 106 105 98 87 108 124 129 131 129 128 131 127 124 125 125 124 126 127 129 131 134 133 137 141 144 146 150 151 151 151 151 155 162 163 162 162 170 173 168 167 167 171 173
Height
1492 1488 1487 1490 1489 1489 1498 1507 1516 1513 1511 1505 1501 1502 1506 1508 1511 1515 1518 1521 1523 1526 1530 1532 1534 1536 1537 1538 1539 1540 1541 1542 1542 1543 1544 1544 1544 1544 1543 1543 1543 1542 1542 1541
1491 1485 1486 1489 1487 1486 1489 1492 1499 1501 1505 1496 1496 1501 1505 1508 1511 1514 1516 1519 1522 1525 1528 1530 1533 1535 1537 1538 1539 1540 1541 1543 1543 1544 1544 1544 1544 1544 1544 1543 1543 1543 1542 1541
1503 1491 1490 1500 1489 1487 1488 1487 1491 1500 1497 1493 1496 1499 1501 1505 1508 1511 1514 1517 1520 1523 1526 1529 1532 1535 1537 1538 1539 1541 1542 1543 1544 1544 1545 1545 1545 1545 1544 1544 1544 1543 1543 1542
1506 1501 1513 1500 1480 1480 1483 1484 1483 1485 1487 1488 1490 1495 1500 1502 1506 1510 1513 1516 1519 1522 1525 1528 1531 1534 1537 1538 1539 1541 1542 1543 1544 1544 1545 1545 1545 1545 1545 1544 1544 1544 1543 1543
1512 1513 1506 1490 1479 1478 1484 1489 1482 1483 1485 1489 1493 1498 1504 1505 1506 1509 1512 1515 1519 1522 1525 1528 1531 1534 1536 1538 1539 1541 1542 1543 1544 1545 1545 1545 1545 1545 1545 1545 1545 1544 1544 1544
1508 1511 1514 1495 1478 1474 1480 1494 1484 1482 1484 1488 1492 1503 1505 1505 1507 1510 1512 1515 1519 1522 1525 1528 1531 1533 1535 1537 1538 1540 1542 1543 1544 1545 1545 1545 1545 1545 1546 1546 1546 1545 1545 1545
1506 1508 1502 1484 1478 1476 1496 1497 1485 1483 1484 1487 1490 1494 1499 1502 1506 1509 1511 1515 1518 1522 1524 1527 1530 1532 1534 1536 1538 1540 1541 1542 1544 1545 1545 1545 1546 1546 1546 1546 1547 1547 1546 1546
1505 1508 1505 1482 1479 1484 1487 1483 1484 1484 1485 1487 1490 1495 1498 1502 1505 1509 1512 1515 1518 1521 1524 1527 1529 1531 1534 1536 1538 1539 1541 1542 1543 1544 1545 1545 1546 1546 1547 1547 1548 1548 1548 1548
1494 1497 1487 1482 1481 1482 1481 1482 1484 1484 1486 1487 1491 1495 1499 1503 1506 1509 1512 1515 1518 1520 1522 1526 1528 1531 1533 1535 1537 1539 1540 1542 1543 1544 1545 1546 1546 1547 1548 1548 1549 1549 1549 1549
1489 1488 1485 1483 1482 1483 1483 1483 1485 1487 1488 1489 1491 1494 1498 1502 1506 1509 1512 1514 1517 1519 1521 1524 1527 1530 1532 1534 1536 1538 1539 1541 1542 1544 1545 1546 1547 1548 1548 1549 1549 1550 1550 1550
1491 1489 1486 1486 1485 1485 1486 1486 1487 1488 1490 1492 1493 1496 1498 1502 1505 1508 1511 1514 1516 1518 1520 1523 1526 1529 1531 1533 1535 1537 1538 1540 1542 1543 1544 1546 1547 1548 1549 1549 1550 1551 1551 1552
1493 1489 1489 1490 1489 1488 1488 1488 1488 1489 1492 1495 1495 1497 1499 1502 1505 1508 1510 1513 1516 1518 1520 1522 1524 1527 1529 1532 1534 1536 1537 1539 1541 1542 1544 1545 1546 1548 1549 1550 1551 1552 1552 1553
1487 1487 1488 1489 1490 1489 1489 1489 1490 1491 1493 1495 1497 1498 1500 1502 1504 1507 1510 1512 1514 1516 1519 1521 1523 1526 1528 1530 1533 1535 1536 1538 1540 1542 1544 1545 1547 1547 1548 1550 1551 1552 1553 1553
1487 1487 1488 1490 1490 1490 1491 1491 1491 1492 1494 1495 1496 1498 1500 1502 1504 1507 1509 1511 1513 1516 1518 1520 1522 1524 1527 1529 1531 1533 1535 1537 1539 1541 1543 1545 1547 1548 1549 1549 1550 1551 1553 1553
1487 1487 1489 1489 1489 1490 1491 1491 1492 1493 1495 1496 1497 1499 1501 1502 1504 1506 1508 1510 1513 1515 1517 1519 1521 1523 1526 1528 1530 1532 1534 1536 1538 1541 1543 1545 1546 1548 1549 1550 1551 1552 1553 1553
1487 1488 1488 1488 1488 1489 1490 1490 1492 1493 1495 1496 1497 1499 1501 1502 1504 1505 1507 1509 1511 1513 1515 1517 1520 1522 1524 1526 1528 1530 1533 1535 1538 1540 1542 1544 1545 1547 1548 1549 1550 1551 1553 1554
1486 1486 1487 1488 1488 1488 1489 1490 1490 1491 1492 1495 1496 1498 1500 1501 1503 1504 1506 1508 1510 1512 1514 1516 1518 1521 1523 1525 1527 1529 1532 1534 1537 1539 1541 1543 1545 1546 1548 1549 1550 1551 1552 1554
1483 1484 1485 1486 1486 1486 1487 1488 1488 1489 1491 1493 1495 1496 1498 1500 1501 1502 1504 1507 1509 1511 1513 1515 1518 1520 1522 1524 1527 1529 1531 1534 1536 1538 1540 1542 1544 1546 1547 1549 1550 1551 1552 1553
1481 1482 1483 1484 1485 1485 1486 1486 1487 1488 1490 1492 1493 1495 1496 1498 1500 1501 1503 1505 1507 1509 1511 1514 1516 1519 1521 1524 1526 1528 1531 1533 1536 1538 1540 1542 1544 1545 1547 1548 1550 1551 1552 1553
1479 1480 1480 1481 1483 1484 1484 1485 1486 1487 1488 1490 1492 1493 1494 1496 1498 1500 1502 1504 1506 1508 1511 1513 1515 1518 1520 1523 1525 1528 1530 1533 1535 1537 1539 1541 1543 1545 1546 1548 1549 1550 1551 1552
1477 1477 1478 1479 1480 1481 1481 1482 1483 1485 1486 1488 1490 1491 1493 1495 1497 1499 1501 1503 1506 1508 1510 1512 1514 1517 1520 1522 1525 1527 1530 1532 1535 1537 1538 1540 1542 1544 1545 1547 1548 1550 1551 1551
1474 1474 1475 1476 1477 1478 1479 1480 1481 1482 1484 1486 1488 1490 1492 1494 1496 1499 1501 1503 1505 1507 1509 1512 1514 1517 1519 1522 1524 1527 1529 1532 1534 1536 1538 1540 1542 1543 1545 1546 1547 1549 1550 1551
1471 1472 1472 1473 1474 1475 1477 1478 1479 1481 1483 1485 1487 1489 1491 1493 1495 1498 1500 1503 1505 1507 1509 1512 1514 1517 1519 1522 1524 1527 1529 1531 1533 1535 1537 1539 1541 1542 1544 1545 1546 1547 1548 1549
1469 1470 1471 1472 1473 1474 1475 1477 1479 1481 1483 1485 1487 1489 1491 1493 1495 1498 1500 1502 1504 1507 1509 1512 1514 1517 1519 1522 1524 1526 1529 1531 1533 1535 1536 1538 1540 1541 1542 1544 1545 1546 1547 1548
1468 1469 1470 1471 1472 1473 1475 1477 1478 1480 1483 1485 1487 1489 1491 1494 1496 1498 1500 1502 1505 1507 1510 1512 1515 1517 1520 1522 1524 1526 1528 1530 1532 1534 1536 1537 1539 1540 1541 1543 1544 1545 1546 1546
1468 1468 1470 1471 1472 1474 1475 1477 1479 1481 1483 1485 1487 1489 1492 1494 1496 1498 1500 1503 1505 1507 1510 1512 1515 1517 1520 1522 1524 1527 1528 1530 1532 1534 1535 1536 1538 1539 1540 1541 1542 1543 1544 1544
1468 1469 1470 1471 1473 1474 1476 1478 1479 1481 1483 1485 1487 1489 1492 1494 1496 1499 1501 1503 1505 1508 1510 1513 1515 1518 1520 1522 1525 1527 1528 1530 1532 1533 1534 1536 1537 1538 1539 1540 1541 1542 1542 1542